View from above orbital plane
|
View from above satellite
|
Ground track
|
The orbit data is extracted from the following two-line orbital elements,
1 00029U 60002B 21024.87302103 -.00000127 00000-0 12210-4 0 9993
2 00029 48.3810 343.6402 0023406 99.8239 260.5317 14.74399704251217
Epoch (UTC): | 24 January 2021 20:57:09 |
Eccentricity: | 0.0023406 |
inclination: | 48.3810° |
perigee height: | 630 km |
apogee height: | 663 km |
right ascension of ascending node: | 343.6402° |
argument of perigee: | 99.8239° |
revolutions per day: | 14.74399704 |
mean anomaly at epoch: | 260.5317° |
orbit number at epoch: | 25121 |
The dashed part of the orbit path shows where the satellite is in the earth's shadow,
|
|